| time (UTC) | temp F | wind direction | speed MPH | gust MPH | rain 1hr in | rain 24hr in | rain mn in | humidity % | barometer mb |
| 20260901041017 | 66 | 154 | 0.0 | 0.0 | 0.01 | 0.03 | 0.00 | 91 | 1017.2 |
| 20260901040533 | 66 | 155 | 0.0 | 0.0 | 0.01 | 0.03 | 0.00 | 91 | 1017.1 |
| 20260901040100 | 66 | 203 | 0.0 | 0.0 | 0.01 | 0.03 | 0.00 | 91 | 1017.1 |
| 20260901035634 | 66 | 167 | 0.0 | 0.0 | 0.01 | 0.03 | 0.03 | 91 | 1017.1 |
| 20260901035019 | 66 | 223 | 0.0 | 0.0 | 0.01 | 0.03 | 0.03 | 91 | 1017.0 |
| 20260901034541 | 66 | 155 | 0.0 | 0.0 | 0.01 | 0.03 | 0.03 | 91 | 1016.9 |
| 20260901034057 | 66 | 159 | 0.0 | 0.0 | 0.01 | 0.03 | 0.03 | 91 | 1017.0 |
| 20260901033615 | 66 | 135 | 0.0 | 0.0 | 0.01 | 0.03 | 0.03 | 91 | 1017.1 |
| 20260901033040 | 66 | 107 | 0.0 | 0.0 | 0.01 | 0.03 | 0.03 | 91 | 1017.2 |
| 20260901032600 | 66 | 120 | 0.0 | 0.0 | 0.00 | 0.02 | 0.02 | 91 | 1017.2 |
| 20260901032122 | 66 | 127 | 0.0 | 0.0 | 0.00 | 0.02 | 0.02 | 91 | 1017.1 |
| 20260901031510 | 65 | 157 | 0.0 | 0.0 | 0.00 | 0.02 | 0.02 | 91 | 1017.1 |
| 20260901031031 | 65 | 152 | 0.0 | 0.0 | 0.00 | 0.02 | 0.02 | 91 | 1017.2 |
| 20260901030547 | 65 | 141 | 0.0 | 0.0 | 0.00 | 0.02 | 0.02 | 91 | 1017.2 |
| 20260901030109 | 65 | 164 | 0.0 | 0.0 | 0.00 | 0.02 | 0.02 | 91 | 1017.2 |
| 20260901025630 | 65 | 133 | 0.0 | 0.0 | 0.00 | 0.02 | 0.02 | 91 | 1017.0 |
| 20260901025022 | 65 | 138 | 0.0 | 0.0 | 0.00 | 0.02 | 0.02 | 91 | 1017.2 |
| 20260901024547 | 65 | 109 | 0.0 | 0.0 | 0.00 | 0.02 | 0.02 | 91 | 1017.2 |
| 20260901024057 | 65 | 109 | 0.0 | 0.0 | 0.00 | 0.02 | 0.02 | 91 | 1017.2 |
| 20260901023617 | 65 | 147 | 0.0 | 0.0 | 0.00 | 0.02 | 0.02 | 91 | 1017.3 |
| 20260901023005 | 65 | 137 | 0.0 | 0.0 | 0.00 | 0.02 | 0.02 | 91 | 1017.3 |
| 20260901022526 | 65 | 138 | 0.0 | 0.0 | 0.00 | 0.02 | 0.02 | 91 | 1017.3 |
| 20260901022040 | 65 | 131 | 0.0 | 0.0 | 0.00 | 0.02 | 0.02 | 91 | 1017.2 |
| 20260901021606 | 65 | 134 | 0.0 | 0.0 | 0.00 | 0.02 | 0.02 | 91 | 1017.3 |
| 20260901021110 | 65 | 145 | 0.0 | 0.0 | 0.00 | 0.02 | 0.02 | 91 | 1017.5 |
| 20260901020626 | 65 | 145 | 0.0 | 0.0 | 0.00 | 0.02 | 0.02 | 91 | 1017.5 |
| 20260901020143 | 65 | 126 | 0.0 | 0.0 | 0.00 | 0.02 | 0.02 | 91 | 1017.7 |
| 20260901015508 | 65 | 125 | 0.0 | 0.0 | 0.00 | 0.02 | 0.02 | 91 | 1017.7 |
| 20260901015019 | 65 | 124 | 0.0 | 0.0 | 0.00 | 0.02 | 0.02 | 91 | 1017.7 |
| 20260901014540 | 65 | 124 | 0.0 | 0.0 | 0.00 | 0.02 | 0.02 | 91 | 1017.8 |
| 20260901014057 | 65 | 138 | 0.0 | 0.0 | 0.00 | 0.02 | 0.02 | 92 | 1017.7 |
| 20260901013615 | 65 | 105 | 0.0 | 0.0 | 0.00 | 0.02 | 0.02 | 92 | 1017.8 |
| 20260901013139 | 65 | 111 | 0.0 | 0.0 | 0.00 | 0.02 | 0.02 | 92 | 1017.7 |
| 20260901012518 | 65 | 164 | 0.0 | 0.0 | 0.00 | 0.02 | 0.02 | 92 | 1017.6 |
| 20260901012031 | 65 | 138 | 0.0 | 0.0 | 0.00 | 0.02 | 0.02 | 92 | 1017.8 |
| 20260901011556 | 65 | 152 | 0.0 | 0.0 | 0.00 | 0.02 | 0.02 | 92 | 1017.7 |
| 20260901011114 | 65 | 154 | 0.0 | 0.0 | 0.00 | 0.02 | 0.02 | 92 | 1017.7 |
| 20260901010502 | 65 | 145 | 0.0 | 0.0 | 0.00 | 0.02 | 0.02 | 92 | 1017.7 |
| 20260901010051 | 65 | 148 | 0.0 | 0.0 | 0.00 | 0.02 | 0.02 | 92 | 1017.6 |
| 20260901005614 | 65 | 94 | 0.0 | 0.0 | 0.00 | 0.02 | 0.02 | 92 | 1017.6 |
| 20260901005130 | 65 | 85 | 0.0 | 0.0 | 0.00 | 0.02 | 0.02 | 92 | 1017.5 |
| 20260901004541 | 65 | 126 | 0.0 | 0.0 | 0.00 | 0.02 | 0.02 | 92 | 1017.6 |
| 20260901004102 | 65 | 139 | 0.0 | 0.0 | 0.00 | 0.02 | 0.02 | 92 | 1017.6 |
| 20260901003617 | 65 | 176 | 0.0 | 0.0 | 0.00 | 0.02 | 0.02 | 92 | 1017.5 |
| 20260901003142 | 65 | 122 | 0.0 | 0.0 | 0.00 | 0.02 | 0.02 | 92 | 1017.3 |
| 20260901002513 | 65 | 151 | 0.0 | 0.0 | 0.00 | 0.02 | 0.02 | 92 | 1017.3 |
| 20260901002030 | 65 | 117 | 0.0 | 0.0 | 0.00 | 0.02 | 0.02 | 92 | 1017.3 |
| 20260901001604 | 65 | 172 | 0.0 | 0.0 | 0.00 | 0.02 | 0.02 | 92 | 1017.3 |
| 20260901001113 | 65 | 155 | 0.0 | 0.0 | 0.00 | 0.02 | 0.02 | 92 | 1017.3 |
| 20260901000636 | 65 | 140 | 0.0 | 0.0 | 0.00 | 0.02 | 0.02 | 92 | 1017.3 |
| 20260901000155 | 65 | 137 | 0.0 | 0.0 | 0.00 | 0.02 | 0.02 | 92 | 1017.3 |
| 20260831235513 | 65 | 148 | 0.0 | 0.0 | 0.00 | 0.02 | 0.02 | 92 | 1017.3 |
| 20260831235030 | 65 | 126 | 0.0 | 0.0 | 0.00 | 0.02 | 0.02 | 92 | 1017.3 |
| 20260831234557 | 66 | 159 | 0.0 | 0.0 | 0.00 | 0.02 | 0.02 | 92 | 1017.4 |
| 20260831234116 | 66 | 90 | 0.0 | 0.0 | 0.00 | 0.02 | 0.02 | 92 | 1017.5 |
| 20260831233634 | 66 | 144 | 0.0 | 0.0 | 0.00 | 0.02 | 0.02 | 92 | 1017.5 |
| 20260831233006 | 66 | 261 | 0.0 | 0.0 | 0.00 | 0.02 | 0.02 | 92 | 1017.5 |
| 20260831232523 | 66 | 147 | 0.0 | 0.0 | 0.00 | 0.02 | 0.02 | 92 | 1017.4 |
| 20260831232043 | 66 | 145 | 0.0 | 0.0 | 0.00 | 0.02 | 0.02 | 92 | 1017.3 |
| 20260831231632 | 66 | 244 | 0.0 | 0.0 | 0.00 | 0.02 | 0.02 | 92 | 1017.4 |
| 20260831231003 | 66 | 117 | 0.0 | 0.0 | 0.00 | 0.02 | 0.02 | 92 | 1017.5 |
| 20260831230522 | 66 | 145 | 0.0 | 0.0 | 0.00 | 0.02 | 0.02 | 92 | 1017.5 |
| 20260831230039 | 66 | 154 | 0.0 | 0.0 | 0.00 | 0.02 | 0.02 | 92 | 1017.6 |
| 20260831225551 | 66 | 148 | 0.0 | 0.0 | 0.00 | 0.02 | 0.02 | 92 | 1017.6 |
| 20260831225111 | 66 | 122 | 0.0 | 0.0 | 0.00 | 0.02 | 0.02 | 92 | 1017.6 |
| 20260831224644 | 66 | 136 | 0.0 | 0.0 | 0.00 | 0.02 | 0.02 | 92 | 1017.7 |
| 20260831224015 | 66 | 121 | 0.0 | 0.0 | 0.00 | 0.02 | 0.02 | 92 | 1017.7 |
| 20260831223534 | 66 | 126 | 0.0 | 0.0 | 0.00 | 0.02 | 0.02 | 92 | 1017.6 |
| 20260831223041 | 66 | 136 | 0.0 | 0.0 | 0.00 | 0.02 | 0.02 | 92 | 1017.6 |
| 20260831222557 | 66 | 156 | 0.0 | 7.0 | 0.00 | 0.02 | 0.02 | 92 | 1017.7 |
| 20260831222116 | 66 | 222 | 0.0 | 7.0 | 0.00 | 0.02 | 0.02 | 92 | 1017.7 |
| 20260831221644 | 66 | 167 | 0.0 | 0.0 | 0.00 | 0.02 | 0.02 | 92 | 1017.7 |
| 20260831221015 | 66 | 145 | 0.0 | 0.0 | 0.00 | 0.02 | 0.02 | 92 | 1017.6 |
| 20260831220533 | 66 | 129 | 0.0 | 0.0 | 0.00 | 0.02 | 0.02 | 92 | 1017.7 |
| 20260831220054 | 66 | 130 | 0.0 | 0.0 | 0.00 | 0.02 | 0.02 | 92 | 1017.8 |
| 20260831215607 | 66 | 141 | 0.0 | 0.0 | 0.00 | 0.02 | 0.02 | 92 | 1017.9 |
| 20260831215122 | 66 | 122 | 0.0 | 0.0 | 0.00 | 0.02 | 0.02 | 92 | 1018.0 |
| 20260831214548 | 66 | 98 | 0.0 | 0.0 | 0.00 | 0.02 | 0.02 | 92 | 1018.2 |
| 20260831214104 | 66 | 137 | 0.0 | 0.0 | 0.00 | 0.02 | 0.02 | 92 | 1018.2 |
| 20260831213626 | 66 | 96 | 0.0 | 0.0 | 0.00 | 0.02 | 0.02 | 92 | 1018.3 |
| 20260831213017 | 66 | 116 | 0.0 | 0.0 | 0.00 | 0.02 | 0.02 | 92 | 1018.3 |
| 20260831212531 | 65 | 162 | 0.0 | 0.0 | 0.00 | 0.02 | 0.02 | 92 | 1018.4 |
| 20260831212051 | 65 | 144 | 0.0 | 0.0 | 0.00 | 0.02 | 0.02 | 92 | 1018.3 |
| 20260831211609 | 65 | 178 | 0.0 | 0.0 | 0.00 | 0.02 | 0.02 | 92 | 1018.4 |
| 20260831211116 | 65 | 154 | 0.0 | 0.0 | 0.00 | 0.02 | 0.02 | 92 | 1018.4 |
| 20260831210632 | 65 | 155 | 0.0 | 0.0 | 0.00 | 0.02 | 0.02 | 92 | 1018.5 |
| 20260831210153 | 65 | 137 | 0.0 | 0.0 | 0.00 | 0.02 | 0.02 | 92 | 1018.6 |
| 20260831205513 | 65 | 92 | 0.0 | 2.0 | 0.00 | 0.02 | 0.02 | 91 | 1018.6 |
| 20260831205034 | 66 | 115 | 0.0 | 0.0 | 0.00 | 0.02 | 0.02 | 91 | 1018.7 |
| 20260831204546 | 66 | 137 | 0.0 | 2.0 | 0.00 | 0.02 | 0.02 | 91 | 1018.8 |
| 20260831204059 | 66 | 165 | 0.0 | 2.0 | 0.00 | 0.02 | 0.02 | 91 | 1018.8 |
| 20260831203619 | 66 | 160 | 0.0 | 1.0 | 0.00 | 0.02 | 0.02 | 91 | 1018.7 |
| 20260831203044 | 66 | 166 | 0.0 | 1.0 | 0.00 | 0.02 | 0.02 | 91 | 1018.7 |
| 20260831202553 | 66 | 122 | 0.0 | 1.0 | 0.00 | 0.02 | 0.02 | 90 | 1018.8 |
| 20260831202111 | 66 | 280 | 0.0 | 0.0 | 0.00 | 0.02 | 0.02 | 90 | 1018.7 |
| 20260831201510 | 66 | 123 | 0.0 | 1.0 | 0.00 | 0.02 | 0.02 | 90 | 1018.6 |
| 20260831201029 | 66 | 148 | 0.0 | 4.0 | 0.00 | 0.02 | 0.02 | 90 | 1018.7 |
| 20260831200550 | 66 | 131 | 0.0 | 4.0 | 0.00 | 0.02 | 0.02 | 90 | 1018.6 |
| 20260831200109 | 66 | 202 | 0.0 | 0.0 | 0.00 | 0.02 | 0.02 | 90 | 1018.6 |
| 20260831195629 | 66 | 136 | 0.0 | 1.0 | 0.00 | 0.02 | 0.02 | 90 | 1018.6 |
| 20260831195013 | 66 | 165 | 0.0 | 2.0 | 0.00 | 0.02 | 0.02 | 90 | 1018.6 |
| 20260831194545 | 66 | 290 | 0.0 | 2.0 | 0.00 | 0.02 | 0.02 | 90 | 1018.7 |
| 20260831194052 | 66 | 134 | 0.0 | 3.0 | 0.00 | 0.02 | 0.02 | 90 | 1018.8 |
| 20260831193611 | 66 | 165 | 0.0 | 3.0 | 0.00 | 0.02 | 0.02 | 90 | 1018.9 |
| 20260831193138 | 66 | 129 | 0.0 | 1.0 | 0.00 | 0.02 | 0.02 | 90 | 1019.0 |
| 20260831192503 | 66 | 206 | 0.0 | 2.0 | 0.00 | 0.02 | 0.02 | 90 | 1018.9 |
| 20260831192024 | 66 | 126 | 0.0 | 0.0 | 0.00 | 0.02 | 0.02 | 90 | 1019.0 |
| 20260831191546 | 66 | 220 | 0.0 | 0.0 | 0.00 | 0.02 | 0.02 | 90 | 1019.0 |
| 20260831191055 | 65 | 271 | 0.0 | 0.0 | 0.00 | 0.02 | 0.02 | 91 | 1019.0 |
| 20260831190614 | 65 | 181 | 0.0 | 0.0 | 0.00 | 0.02 | 0.02 | 90 | 1019.2 |
| 20260831190147 | 65 | 79 | 0.0 | 0.0 | 0.00 | 0.02 | 0.02 | 90 | 1019.2 |
| 20260831185506 | 65 | 159 | 0.0 | 0.0 | 0.00 | 0.02 | 0.02 | 90 | 1019.2 |
| 20260831185022 | 65 | 116 | 0.0 | 4.0 | 0.00 | 0.02 | 0.02 | 90 | 1019.2 |
| 20260831184541 | 65 | 190 | 0.0 | 0.0 | 0.00 | 0.02 | 0.02 | 90 | 1019.2 |
| 20260831184104 | 65 | 145 | 0.0 | 0.0 | 0.00 | 0.02 | 0.02 | 90 | 1019.3 |
| 20260831183621 | 65 | 144 | 0.0 | 0.0 | 0.00 | 0.02 | 0.02 | 90 | 1019.4 |
| 20260831183040 | 65 | 155 | 0.0 | 0.0 | 0.00 | 0.02 | 0.02 | 91 | 1019.4 |
| 20260831182604 | 65 | 119 | 0.0 | 3.0 | 0.00 | 0.02 | 0.02 | 91 | 1019.3 |
| 20260831182123 | 65 | 113 | 0.0 | 3.0 | 0.00 | 0.02 | 0.02 | 91 | 1019.3 |
| 20260831181540 | 65 | 151 | 0.0 | 0.0 | 0.00 | 0.02 | 0.02 | 91 | 1019.5 |
| 20260831181057 | 64 | 220 | 0.0 | 3.0 | 0.00 | 0.02 | 0.02 | 91 | 1019.6 |
| 20260831180617 | 64 | 116 | 0.0 | 3.0 | 0.00 | 0.02 | 0.02 | 91 | 1019.7 |
| 20260831180145 | 64 | 158 | 0.0 | 1.0 | 0.00 | 0.02 | 0.02 | 92 | 1019.8 |
| 20260831175503 | 64 | 122 | 0.0 | 0.0 | 0.00 | 0.02 | 0.02 | 92 | 1019.9 |
| 20260831175025 | 64 | 159 | 0.0 | 0.0 | 0.00 | 0.02 | 0.02 | 92 | 1019.9 |
| 20260831174541 | 64 | 158 | 0.0 | 0.0 | 0.00 | 0.02 | 0.02 | 92 | 1020.0 |
| 20260831174057 | 64 | 127 | 0.0 | 0.0 | 0.00 | 0.02 | 0.02 | 91 | 1019.9 |
| 20260831173619 | 65 | 138 | 0.0 | 0.0 | 0.00 | 0.02 | 0.02 | 91 | 1020.0 |
| 20260831173041 | 65 | 135 | 0.0 | 0.0 | 0.00 | 0.02 | 0.02 | 92 | 1020.0 |
| 20260831172555 | 65 | 136 | 0.0 | 0.0 | 0.00 | 0.02 | 0.02 | 91 | 1020.0 |
| 20260831172114 | 65 | 145 | 0.0 | 0.0 | 0.00 | 0.02 | 0.02 | 91 | 1020.0 |
| 20260831171638 | 65 | 127 | 0.0 | 0.0 | 0.00 | 0.02 | 0.02 | 91 | 1020.0 |
| 20260831171011 | 65 | 145 | 0.0 | 0.0 | 0.00 | 0.02 | 0.02 | 91 | 1020.0 |
| 20260831170532 | 65 | 141 | 0.0 | 2.0 | 0.00 | 0.02 | 0.02 | 91 | 1020.1 |
| 20260831170105 | 65 | 148 | 0.0 | 2.0 | 0.00 | 0.02 | 0.02 | 91 | 1020.2 |
| 20260831165617 | 65 | 137 | 0.0 | 0.0 | 0.00 | 0.02 | 0.02 | 91 | 1020.3 |
| 20260831165135 | 65 | 233 | 0.0 | 0.0 | 0.00 | 0.02 | 0.02 | 91 | 1020.4 |
| 20260831164541 | 65 | 144 | 0.0 | 0.0 | 0.00 | 0.02 | 0.02 | 91 | 1020.4 |
| 20260831164100 | 65 | 147 | 0.0 | 0.0 | 0.01 | 0.02 | 0.02 | 91 | 1020.4 |
| 20260831163619 | 65 | 171 | 0.0 | 0.0 | 0.01 | 0.02 | 0.02 | 91 | 1020.4 |
| 20260831163145 | 65 | 148 | 0.0 | 1.0 | 0.01 | 0.02 | 0.02 | 91 | 1020.3 |
| 20260831162515 | 65 | 186 | 0.0 | 1.0 | 0.01 | 0.02 | 0.02 | 91 | 1020.4 |
| 20260831162032 | 65 | 188 | 0.0 | 1.0 | 0.01 | 0.02 | 0.02 | 91 | 1020.6 |
| 20260831161600 | 65 | 180 | 0.0 | 1.0 | 0.01 | 0.02 | 0.02 | 92 | 1020.5 |
| 20260831161119 | 65 | 241 | 0.0 | 1.0 | 0.01 | 0.02 | 0.02 | 92 | 1020.5 |
| 20260831160502 | 65 | 182 | 0.0 | 1.0 | 0.02 | 0.02 | 0.02 | 92 | 1020.4 |
| 20260831160047 | 65 | 126 | 0.0 | 1.0 | 0.02 | 0.02 | 0.02 | 92 | 1020.5 |
| 20260831155605 | 65 | 159 | 0.0 | 1.0 | 0.02 | 0.02 | 0.02 | 92 | 1020.4 |
| 20260831155125 | 65 | 176 | 0.0 | 0.0 | 0.02 | 0.02 | 0.02 | 92 | 1020.5 |
| 20260831154601 | 65 | 136 | 0.0 | 0.0 | 0.02 | 0.02 | 0.02 | 92 | 1020.6 |
| 20260831154055 | 65 | 135 | 0.0 | 0.0 | 0.01 | 0.01 | 0.01 | 92 | 1020.7 |
| 20260831153613 | 65 | 91 | 0.0 | 0.0 | 0.01 | 0.01 | 0.01 | 91 | 1020.6 |
| 20260831153029 | 65 | 116 | 0.0 | 0.0 | 0.01 | 0.01 | 0.01 | 91 | 1020.7 |
| 20260831152551 | 65 | 140 | 0.0 | 0.0 | 0.01 | 0.01 | 0.01 | 91 | 1020.9 |
| 20260831152109 | 65 | 127 | 0.0 | 0.0 | 0.01 | 0.01 | 0.01 | 91 | 1020.9 |
| 20260831151637 | 65 | 148 | 0.0 | 0.0 | 0.01 | 0.01 | 0.01 | 90 | 1020.9 |
| 20260831151008 | 66 | 167 | 0.0 | 0.0 | 0.00 | 0.00 | 0.00 | 90 | 1020.9 |
| 20260831150527 | 66 | 170 | 0.0 | 0.0 | 0.00 | 0.00 | 0.00 | 89 | 1020.9 |
| 20260831150051 | 66 | 158 | 0.0 | 0.0 | 0.00 | 0.00 | 0.00 | 89 | 1020.8 |
| 20260831145610 | 66 | 129 | 0.0 | 4.0 | 0.00 | 0.00 | 0.00 | 89 | 1020.6 |
| 20260831145127 | 66 | 153 | 0.0 | 4.0 | 0.00 | 0.00 | 0.00 | 88 | 1020.4 |
| 20260831144501 | 66 | 175 | 0.0 | 1.0 | 0.00 | 0.00 | 0.00 | 89 | 1020.3 |
| 20260831144019 | 66 | 136 | 0.0 | 1.0 | 0.00 | 0.00 | 0.00 | 89 | 1020.3 |
| 20260831143534 | 66 | 125 | 0.0 | 0.0 | 0.00 | 0.00 | 0.00 | 90 | 1020.3 |
| 20260831143105 | 66 | 81 | 0.0 | 0.0 | 0.00 | 0.00 | 0.00 | 90 | 1020.3 |
| 20260831142509 | 66 | 111 | 0.0 | 0.0 | 0.00 | 0.00 | 0.00 | 90 | 1020.5 |
| 20260831142026 | 65 | 126 | 0.0 | 0.0 | 0.00 | 0.00 | 0.00 | 89 | 1020.6 |
| 20260831141548 | 66 | 122 | 0.0 | 0.0 | 0.00 | 0.00 | 0.00 | 89 | 1020.6 |
| 20260831141103 | 66 | 165 | 0.0 | 0.0 | 0.00 | 0.00 | 0.00 | 89 | 1020.7 |
| 20260831140622 | 66 | 143 | 0.0 | 0.0 | 0.00 | 0.00 | 0.00 | 89 | 1020.5 |
| 20260831140017 | 66 | 105 | 0.0 | 0.0 | 0.00 | 0.00 | 0.00 | 90 | 1020.4 |
| 20260831135531 | 65 | 171 | 0.0 | 0.0 | 0.00 | 0.00 | 0.00 | 90 | 1020.6 |
| 20260831135047 | 65 | 141 | 0.0 | 0.0 | 0.00 | 0.00 | 0.00 | 90 | 1020.6 |
| 20260831134600 | 65 | 119 | 0.0 | 0.0 | 0.00 | 0.00 | 0.00 | 91 | 1020.6 |
| 20260831134111 | 64 | 176 | 0.0 | 0.0 | 0.00 | 0.00 | 0.00 | 91 | 1020.6 |
| 20260831133632 | 64 | 158 | 0.0 | 0.0 | 0.00 | 0.00 | 0.00 | 91 | 1020.6 |
| 20260831133151 | 64 | 156 | 0.0 | 1.0 | 0.00 | 0.00 | 0.00 | 91 | 1020.5 |
| 20260831132519 | 64 | 158 | 0.0 | 1.0 | 0.00 | 0.00 | 0.00 | 91 | 1020.5 |
| 20260831132033 | 64 | 157 | 0.0 | 0.0 | 0.00 | 0.00 | 0.00 | 91 | 1020.6 |
| 20260831131556 | 64 | 183 | 0.0 | 0.0 | 0.00 | 0.00 | 0.00 | 92 | 1020.4 |
| 20260831131104 | 64 | 152 | 0.0 | 0.0 | 0.00 | 0.00 | 0.00 | 92 | 1020.5 |
| 20260831130622 | 63 | 164 | 0.0 | 0.0 | 0.00 | 0.00 | 0.00 | 92 | 1020.6 |
| 20260831130146 | 63 | 155 | 0.0 | 0.0 | 0.00 | 0.00 | 0.00 | 92 | 1020.6 |
| 20260831125505 | 63 | 112 | 0.0 | 0.0 | 0.00 | 0.00 | 0.00 | 92 | 1020.7 |
| 20260831125025 | 63 | 131 | 0.0 | 0.0 | 0.00 | 0.00 | 0.00 | 92 | 1020.6 |
| 20260831124546 | 63 | 122 | 0.0 | 0.0 | 0.00 | 0.00 | 0.00 | 92 | 1020.7 |
| 20260831124054 | 62 | 120 | 0.0 | 0.0 | 0.00 | 0.00 | 0.00 | 92 | 1020.8 |
| 20260831123613 | 62 | 119 | 0.0 | 0.0 | 0.00 | 0.00 | 0.00 | 92 | 1020.8 |
| 20260831123135 | 62 | 112 | 0.0 | 0.0 | 0.00 | 0.00 | 0.00 | 92 | 1020.7 |
| 20260831122513 | 62 | 147 | 0.0 | 0.0 | 0.00 | 0.00 | 0.00 | 92 | 1020.9 |
| 20260831122029 | 61 | 119 | 0.0 | 0.0 | 0.00 | 0.00 | 0.00 | 92 | 1020.9 |
| 20260831121545 | 61 | 104 | 0.0 | 0.0 | 0.00 | 0.00 | 0.00 | 92 | 1020.9 |
| 20260831121057 | 61 | 141 | 0.0 | 1.0 | 0.00 | 0.00 | 0.00 | 92 | 1021.0 |
| 20260831120613 | 61 | 157 | 0.0 | 1.0 | 0.00 | 0.00 | 0.00 | 92 | 1021.0 |
| 20260831120137 | 61 | 129 | 0.0 | 0.0 | 0.00 | 0.00 | 0.00 | 92 | 1021.1 |
| 20260831115515 | 61 | 153 | 0.0 | 0.0 | 0.00 | 0.00 | 0.00 | 92 | 1021.1 |
| 20260831115035 | 60 | 124 | 0.0 | 0.0 | 0.00 | 0.00 | 0.00 | 92 | 1021.0 |
| 20260831114555 | 60 | 101 | 0.0 | 0.0 | 0.00 | 0.00 | 0.00 | 92 | 1021.0 |
| 20260831114111 | 60 | 140 | 0.0 | 0.0 | 0.00 | 0.00 | 0.00 | 92 | 1021.0 |
| 20260831113627 | 60 | 136 | 0.0 | 0.0 | 0.00 | 0.00 | 0.00 | 92 | 1020.9 |
| 20260831113034 | 60 | 117 | 0.0 | 0.0 | 0.00 | 0.00 | 0.00 | 92 | 1020.9 |
| 20260831112550 | 60 | 138 | 0.0 | 0.0 | 0.00 | 0.00 | 0.00 | 92 | 1020.9 |
| 20260831112107 | 60 | 131 | 0.0 | 0.0 | 0.00 | 0.00 | 0.00 | 92 | 1021.0 |
| 20260831111631 | 60 | 127 | 0.0 | 0.0 | 0.00 | 0.00 | 0.00 | 92 | 1020.9 |
| 20260831111005 | 61 | 137 | 0.0 | 0.0 | 0.00 | 0.00 | 0.00 | 92 | 1020.9 |
| 20260831110527 | 61 | 143 | 0.0 | 0.0 | 0.00 | 0.00 | 0.00 | 92 | 1020.8 |
| 20260831110039 | 60 | 144 | 0.0 | 0.0 | 0.00 | 0.00 | 0.00 | 92 | 1020.8 |
| 20260831105559 | 60 | 143 | 0.0 | 0.0 | 0.00 | 0.00 | 0.00 | 92 | 1020.8 |
| 20260831105117 | 60 | 115 | 0.0 | 0.0 | 0.00 | 0.00 | 0.00 | 92 | 1020.6 |
| 20260831104539 | 60 | 114 | 0.0 | 0.0 | 0.00 | 0.00 | 0.00 | 92 | 1020.6 |
| 20260831104055 | 60 | 127 | 0.0 | 0.0 | 0.00 | 0.00 | 0.00 | 92 | 1020.6 |
| 20260831103615 | 60 | 145 | 0.0 | 0.0 | 0.00 | 0.00 | 0.00 | 92 | 1020.5 |
| 20260831103007 | 60 | 150 | 0.0 | 0.0 | 0.00 | 0.00 | 0.00 | 92 | 1020.4 |
| 20260831102521 | 60 | 144 | 0.0 | 0.0 | 0.00 | 0.00 | 0.00 | 92 | 1020.4 |
| 20260831102035 | 60 | 126 | 0.0 | 0.0 | 0.00 | 0.00 | 0.00 | 92 | 1020.3 |
| 20260831101609 | 60 | 148 | 0.0 | 0.0 | 0.00 | 0.00 | 0.00 | 92 | 1020.4 |
| 20260831101121 | 60 | 141 | 0.0 | 0.0 | 0.00 | 0.00 | 0.00 | 92 | 1020.4 |
| 20260831100506 | 60 | 120 | 0.0 | 0.0 | 0.00 | 0.00 | 0.00 | 92 | 1020.1 |
| 20260831100153 | 60 | 119 | 0.0 | 0.0 | 0.00 | 0.00 | 0.00 | 92 | 1020.2 |
| 20260831095509 | 60 | 133 | 0.0 | 0.0 | 0.00 | 0.00 | 0.00 | 92 | 1020.1 |
| 20260831095035 | 60 | 136 | 0.0 | 0.0 | 0.00 | 0.00 | 0.00 | 92 | 1020.1 |
| 20260831094627 | 60 | 119 | 0.0 | 0.0 | 0.00 | 0.00 | 0.00 | 92 | 1020.1 |
| 20260831094119 | 60 | 138 | 0.0 | 0.0 | 0.00 | 0.00 | 0.00 | 92 | 1020.2 |
| 20260831093635 | 60 | 129 | 0.0 | 0.0 | 0.00 | 0.00 | 0.00 | 92 | 1020.2 |
| 20260831093049 | 60 | 137 | 0.0 | 0.0 | 0.00 | 0.00 | 0.00 | 92 | 1020.2 |
| 20260831092604 | 60 | 140 | 0.0 | 0.0 | 0.00 | 0.00 | 0.00 | 92 | 1020.3 |
| 20260831092120 | 60 | 119 | 0.0 | 0.0 | 0.00 | 0.00 | 0.00 | 92 | 1020.3 |
| 20260831091641 | 60 | 108 | 0.0 | 0.0 | 0.00 | 0.00 | 0.00 | 92 | 1020.2 |
| 20260831091013 | 60 | 126 | 0.0 | 0.0 | 0.00 | 0.00 | 0.00 | 92 | 1020.2 |
| 20260831090533 | 60 | 117 | 0.0 | 0.0 | 0.00 | 0.00 | 0.00 | 92 | 1020.1 |
| 20260831090052 | 60 | 117 | 0.0 | 0.0 | 0.00 | 0.00 | 0.00 | 92 | 1020.1 |
| 20260831085607 | 60 | 141 | 0.0 | 0.0 | 0.00 | 0.00 | 0.00 | 92 | 1020.3 |
| 20260831085124 | 60 | 147 | 0.0 | 0.0 | 0.00 | 0.00 | 0.00 | 92 | 1020.3 |
| 20260831084646 | 60 | 126 | 0.0 | 0.0 | 0.00 | 0.00 | 0.00 | 92 | 1020.1 |
| 20260831084009 | 60 | 136 | 0.0 | 0.0 | 0.00 | 0.00 | 0.00 | 92 | 1020.2 |
| 20260831083528 | 60 | 119 | 0.0 | 0.0 | 0.00 | 0.00 | 0.00 | 92 | 1020.2 |
| 20260831083044 | 61 | 129 | 0.0 | 0.0 | 0.00 | 0.00 | 0.00 | 92 | 1020.2 |
| 20260831082601 | 61 | 134 | 0.0 | 0.0 | 0.00 | 0.00 | 0.00 | 92 | 1020.2 |
| 20260831082123 | 61 | 147 | 0.0 | 0.0 | 0.00 | 0.00 | 0.00 | 92 | 1020.1 |
| 20260831081543 | 61 | 137 | 0.0 | 0.0 | 0.00 | 0.00 | 0.00 | 92 | 1020.3 |
| 20260831081105 | 61 | 145 | 0.0 | 0.0 | 0.00 | 0.00 | 0.00 | 92 | 1020.2 |
| 20260831080621 | 61 | 147 | 0.0 | 0.0 | 0.00 | 0.00 | 0.00 | 92 | 1020.2 |
| 20260831080013 | 61 | 138 | 0.0 | 0.0 | 0.00 | 0.00 | 0.00 | 92 | 1020.2 |
| 20260831075535 | 61 | 174 | 0.0 | 0.0 | 0.00 | 0.00 | 0.00 | 92 | 1020.2 |
| 20260831075054 | 61 | 127 | 0.0 | 0.0 | 0.00 | 0.00 | 0.00 | 92 | 1020.1 |
| 20260831074621 | 61 | 126 | 0.0 | 0.0 | 0.00 | 0.00 | 0.00 | 92 | 1020.1 |
| 20260831074009 | 61 | 147 | 0.0 | 0.0 | 0.00 | 0.00 | 0.00 | 92 | 1020.1 |
| 20260831073521 | 61 | 136 | 0.0 | 0.0 | 0.00 | 0.00 | 0.00 | 92 | 1020.1 |
| 20260831073037 | 61 | 124 | 0.0 | 0.0 | 0.00 | 0.00 | 0.00 | 92 | 1020.2 |
| 20260831072554 | 61 | 141 | 0.0 | 0.0 | 0.00 | 0.00 | 0.00 | 92 | 1020.2 |
| 20260831072112 | 61 | 137 | 0.0 | 0.0 | 0.00 | 0.00 | 0.00 | 92 | 1020.2 |
| 20260831071637 | 61 | 150 | 0.0 | 0.0 | 0.00 | 0.00 | 0.00 | 92 | 1020.3 |
| 20260831071015 | 61 | 145 | 0.0 | 0.0 | 0.00 | 0.00 | 0.00 | 92 | 1020.3 |
| 20260831070536 | 61 | 167 | 0.0 | 0.0 | 0.00 | 0.00 | 0.00 | 92 | 1020.3 |
| 20260831070057 | 61 | 145 | 0.0 | 0.0 | 0.00 | 0.00 | 0.00 | 92 | 1020.2 |
| 20260831065616 | 61 | 143 | 0.0 | 0.0 | 0.00 | 0.00 | 0.00 | 92 | 1020.2 |
| 20260831065133 | 61 | 130 | 0.0 | 0.0 | 0.00 | 0.00 | 0.00 | 92 | 1020.3 |
| 20260831064533 | 61 | 130 | 0.0 | 0.0 | 0.00 | 0.00 | 0.00 | 92 | 1020.4 |
| 20260831064046 | 61 | 133 | 0.0 | 0.0 | 0.00 | 0.00 | 0.00 | 92 | 1020.4 |
| 20260831063609 | 61 | 133 | 0.0 | 0.0 | 0.00 | 0.00 | 0.00 | 92 | 1020.5 |
| 20260831063136 | 61 | 133 | 0.0 | 0.0 | 0.00 | 0.00 | 0.00 | 92 | 1020.4 |
| 20260831062511 | 61 | 133 | 0.0 | 0.0 | 0.00 | 0.00 | 0.00 | 92 | 1020.3 |
| 20260831062031 | 61 | 133 | 0.0 | 0.0 | 0.00 | 0.00 | 0.00 | 92 | 1020.4 |
| 20260831061541 | 61 | 133 | 0.0 | 0.0 | 0.00 | 0.00 | 0.00 | 92 | 1020.3 |
| 20260831061101 | 61 | 133 | 0.0 | 0.0 | 0.00 | 0.00 | 0.00 | 92 | 1020.4 |
| 20260831060616 | 61 | 133 | 0.0 | 0.0 | 0.00 | 0.00 | 0.00 | 92 | 1020.4 |
| 20260831060141 | 61 | 133 | 0.0 | 0.0 | 0.00 | 0.00 | 0.00 | 92 | 1020.6 |
| 20260831055507 | 61 | 126 | 0.0 | 0.0 | 0.00 | 0.00 | 0.00 | 92 | 1020.7 |
| 20260831055025 | 61 | 143 | 0.0 | 0.0 | 0.00 | 0.00 | 0.00 | 92 | 1020.7 |
| 20260831054547 | 61 | 157 | 0.0 | 0.0 | 0.00 | 0.00 | 0.00 | 92 | 1020.6 |
| 20260831054106 | 61 | 140 | 0.0 | 0.0 | 0.00 | 0.00 | 0.00 | 92 | 1020.7 |
| 20260831053621 | 61 | 140 | 0.0 | 0.0 | 0.00 | 0.00 | 0.00 | 92 | 1020.7 |
| 20260831053048 | 61 | 133 | 0.0 | 0.0 | 0.00 | 0.00 | 0.00 | 92 | 1020.7 |
| 20260831052558 | 61 | 114 | 0.0 | 0.0 | 0.00 | 0.00 | 0.00 | 92 | 1020.8 |
| 20260831052122 | 61 | 114 | 0.0 | 0.0 | 0.00 | 0.00 | 0.00 | 92 | 1020.9 |
| 20260831051536 | 61 | 115 | 0.0 | 0.0 | 0.00 | 0.00 | 0.00 | 92 | 1020.8 |
| 20260831051051 | 61 | 138 | 0.0 | 0.0 | 0.00 | 0.00 | 0.00 | 92 | 1021.0 |
| 20260831050611 | 61 | 139 | 0.0 | 0.0 | 0.00 | 0.00 | 0.00 | 92 | 1021.0 |
| 20260831050135 | 60 | 138 | 0.0 | 0.0 | 0.00 | 0.00 | 0.00 | 92 | 1021.0 |
| 20260831045503 | 60 | 138 | 0.0 | 0.0 | 0.00 | 0.00 | 0.00 | 92 | 1021.0 |
| 20260831045027 | 60 | 138 | 0.0 | 0.0 | 0.00 | 0.00 | 0.00 | 92 | 1020.9 |
| 20260831044606 | 60 | 145 | 0.0 | 0.0 | 0.00 | 0.00 | 0.00 | 92 | 1020.8 |
| 20260831044121 | 60 | 140 | 0.0 | 0.0 | 0.00 | 0.00 | 0.00 | 92 | 1020.8 |
| 20260831043630 | 60 | 140 | 0.0 | 0.0 | 0.00 | 0.00 | 0.00 | 92 | 1020.8 |
| 20260831043001 | 60 | 131 | 0.0 | 0.0 | 0.00 | 0.00 | 0.00 | 92 | 1020.9 |
| 20260831042519 | 60 | 131 | 0.0 | 0.0 | 0.00 | 0.00 | 0.00 | 92 | 1020.9 |
| 20260831042036 | 60 | 140 | 0.0 | 0.0 | 0.00 | 0.00 | 0.00 | 92 | 1020.8 |
| 20260831041557 | 61 | 140 | 0.0 | 0.0 | 0.00 | 0.00 | 0.00 | 92 | 1020.9 |